This is the latest recevied weather packets stored in our database for station/object vk4zu-13. If no packets are shown the sender has not sent any weather packets the latest 10 day(s).
| Time | Temp. | Humidity | Pressure | Rain* | Wind** | Luminosity | Snow |
|---|---|---|---|---|---|---|---|
| 1777678882 | 22.78° C | 82% | 1022.8 hPa | 0 mm | - | 190 W/m² | - |
| 1777678821 | 22.78° C | 82% | 1022.9 hPa | 0 mm | - | 167 W/m² | - |
| 1777678751 | 22.78° C | 83% | 1022.8 hPa | 0 mm | - | 153 W/m² | - |
| 1777678710 | 23.33° C | 82% | 1022.8 hPa | 0 mm | - | 149 W/m² | - |
| 1777678611 | 23.33° C | 82% | 1022.7 hPa | 0 mm | - | 162 W/m² | - |
| 1777678541 | 23.33° C | 83% | 1022.9 hPa | 0 mm | - | 190 W/m² | - |
| 1777678472 | 23.33° C | 82% | 1022.7 hPa | 0 mm | - | 190 W/m² | - |
| 1777678402 | 23.33° C | 83% | 1022.8 hPa | 0 mm | - | 162 W/m² | - |
| 1777678331 | 23.33° C | 83% | 1022.9 hPa | 0 mm | - | 654 W/m² | - |
| 1777678287 | 23.33° C | 84% | 1022.7 hPa | 0 mm | - | 654 W/m² | - |
| 1777678256 | 23.33° C | 83% | 1022.8 hPa | 0 mm | - | 229 W/m² | - |
| 1777678122 | 23.33° C | 83% | 1022.8 hPa | 0 mm | - | 267 W/m² | - |
| 1777678055 | 22.78° C | 84% | 1022.7 hPa | 0.25 mm | - | 274 W/m² | - |
| 1777677982 | 22.78° C | 82% | 1022.7 hPa | 0.25 mm | - | 227 W/m² | - |
| 1777677918 | 22.78° C | 82% | 1022.7 hPa | 0.25 mm | - | 227 W/m² | - |
| 1777677858 | 23.33° C | 82% | 1022.6 hPa | 0.25 mm | - | 167 W/m² | - |
| 1777677787 | 23.33° C | 82% | 1022.7 hPa | 0.25 mm | - | 195 W/m² | - |
| 1777677719 | 23.33° C | 83% | 1022.7 hPa | 0.25 mm | - | 195 W/m² | - |
| 1777677671 | 23.33° C | 84% | 1022.7 hPa | 0.25 mm | - | 183 W/m² | - |
| 1777677601 | 23.33° C | 83% | 1022.8 hPa | 0.25 mm | - | 341 W/m² | - |
| 1777677532 | 23.33° C | 82% | 1022.7 hPa | 0.25 mm | - | 364 W/m² | - |
| 1777677459 | 23.33° C | 83% | 1022.7 hPa | 0.25 mm | - | 162 W/m² | - |
| 1777677392 | 23.33° C | 82% | 1022.9 hPa | 0.25 mm | - | 162 W/m² | - |
| 1777677331 | 23.33° C | 83% | 1022.8 hPa | 0.25 mm | - | 149 W/m² | - |
| 1777677278 | 23.33° C | 84% | 1022.7 hPa | 0.51 mm | - | 316 W/m² | - |
* Rain latest hour (hover to see other rain measurements)
** Current wind speed in m/s (hover to see current wind gust speed)